User: anonymous   Login
Location: Chervonnoye
(48.6000°N, 34.4000°E)
Time: 12:26:31
(UTC+00:00)
Language:

deb Kosmos-1275 - Orbit

View from above orbital plane
View from above orbital plane
View from above satellite
View from above satellite

Ground track
Ground track

The orbit data is extracted from the following two-line orbital elements,

1 13477U 81053FX  21295.88863221  .00001725  00000-0  83903-3 0  9997
2 13477  83.0024 216.5139 0069002  82.9121 277.9898 14.16480336  3344
Epoch (UTC): 22 October 2021 21:19:37
Eccentricity: 0.0069002
inclination: 83.0024°
perigee height: 787 km
apogee height: 887 km
right ascension of ascending node: 216.5139°
argument of perigee: 82.9121°
revolutions per day: 14.16480336
mean anomaly at epoch: 277.9898°
orbit number at epoch: 334

The dashed part of the orbit path shows where the satellite is in the earth's shadow,  

DLR